Tracking 19969 objects as of 13-Nov-2019
Live streaming from Space Station
objects crossing your sky now
Track the group of recently launched Starlink satellites

THORAD DELTA 1 DEB

Track THORAD DELTA 1 DEB now!
10-day predictions


NORAD ID: 10393
Int'l Code: 1974-089EJ
Perigee: 1,457.5 km
Apogee: 1,707.3 km
Inclination: 101.6 °
Period: 117.6 minutes
Semi major axis: 7953 km
RCS: 0.0302 m2 (small)
Launch date: November 15, 1974
Source: United States (US)
Launch site: AIR FORCE WESTERN TEST RANGE (AFWTR)

Note: This is SATELLITE DEBRIS
aabbcc
Your satellite tracking list
Your tracking list is empty




NASA's NSSDC Master Catalog

Two Line Element Set (TLE):
1 10393U 74089EJ  19315.49933200 -.00000052 +00000-0 -10195-3 0  9991
2 10393 101.6296 040.1792 0157066 046.9140 021.5072 12.23975070015183
Source of the keplerian elements: AFSPC